FW7786 Weather Reports


time (UTC)temp
C
wind
direction
speed
KPH
gust
KPH
rain 1hr
cm
rain 24hr
cm
rain mn
cm
humidity
%
barometer
mb
20260507151553 13 0 0.0 9.7 0.00 0.10 0.08 65 1011.6
20260507150058 13 0 0.0 1.6 0.00 0.10 0.08 68 1011.4
20260507144556 13 0 0.0 0.0 0.00 0.23 0.08 70 1011.6
20260507143110 13 0 0.0 1.6 0.00 0.23 0.08 70 1012.1
20260507141559 13 0 0.0 4.8 0.00 0.23 0.08 70 1012.2
20260507134602 13 0 1.6 14.5 0.00 0.23 0.08 70 1012.2
20260507133103 13 0 0.0 12.9 0.00 0.23 0.08 70 1012.0
20260507131612 13 0 0.0 6.4 0.00 0.23 0.08 72 1011.8
20260507130056 13 0 0.0 3.2 0.00 0.23 0.08 75 1011.9
20260507124552 13 0 0.0 8.0 0.00 0.23 0.08 77 1011.8
20260507123055 13 0 0.0 0.0 0.00 0.23 0.08 78 1011.7
20260507121554 12 0 0.0 0.0 0.00 0.23 0.08 79 1011.6
20260507120055 12 0 0.0 0.0 0.00 0.23 0.08 82 1011.5
20260507114558 12 0 0.0 0.0 0.00 0.23 0.08 84 1011.5
20260507113100 12 0 0.0 0.0 0.00 0.23 0.08 85 1011.4
20260507111559 12 0 0.0 9.7 0.00 0.23 0.08 85 1011.3
20260507110056 12 0 0.0 0.0 0.00 0.23 0.08 87 1011.2
20260507104555 12 0 0.0 0.0 0.00 0.23 0.08 87 1011.4
20260507103052 12 0 0.0 6.4 0.00 0.23 0.08 88 1011.2
20260507101556 12 0 0.0 0.0 0.00 0.23 0.08 89 1010.9
20260507100056 12 0 0.0 1.6 0.00 0.23 0.08 89 1011.0
20260507094554 12 0 0.0 0.0 0.00 0.23 0.08 91 1011.1
20260507093056 12 0 0.0 0.0 0.00 0.23 0.08 91 1010.9
20260507091553 12 0 0.0 0.0 0.00 0.23 0.08 92 1011.0
20260507090052 12 0 0.0 4.8 0.00 0.23 0.08 92 1010.7
20260507084602 12 0 0.0 3.2 0.00 0.23 0.08 91 1010.3
20260507083053 12 0 0.0 3.2 0.00 0.23 0.08 91 1010.8
20260507081556 12 0 0.0 0.0 0.00 0.23 0.08 91 1010.8
20260507080108 12 0 0.0 0.0 0.00 0.23 0.08 90 1011.0
20260507074550 12 0 0.0 1.6 0.00 0.23 0.08 90 1010.2
20260507073052 12 0 0.0 4.8 0.00 0.23 0.08 90 1010.0
20260507071607 13 0 0.0 1.6 0.00 0.23 0.08 90 1010.0
20260507070055 13 0 0.0 8.0 0.03 0.23 0.08 90 1010.0
20260507064556 13 31 1.6 17.7 0.03 0.23 0.08 91 1010.3
20260507063055 14 0 0.0 12.9 0.03 0.23 0.08 92 1010.4
20260507061558 14 0 0.0 9.7 0.03 0.23 0.08 92 1010.2
20260507060058 15 0 0.0 6.4 0.00 0.20 0.05 92 1008.5
20260507054554 15 0 0.0 4.8 0.03 0.20 0.05 92 1008.4
20260507053122 15 0 0.0 4.8 0.03 0.20 0.05 91 1008.7
20260507051601 16 0 0.0 8.0 0.03 0.20 0.05 90 1009.4
20260507050055 17 30 0.0 1.6 0.05 0.20 0.05 90 1009.8
20260507044557 17 0 0.0 0.0 0.03 0.18 0.03 92 1009.3
20260507043053 17 0 0.0 0.0 0.03 0.18 0.03 91 1009.2
20260507041556 17 0 0.0 0.0 0.03 0.18 0.03 90 1009.1
20260507040055 17 0 0.0 0.0 0.00 0.15 0.00 90 1009.2
20260507034551 18 0 0.0 0.0 0.00 0.15 0.15 89 1009.0
20260507033053 18 0 0.0 0.0 0.00 0.15 0.15 88 1008.9
20260507031554 18 0 0.0 0.0 0.00 0.15 0.15 87 1009.0
20260507030056 18 0 0.0 0.0 0.00 0.15 0.15 86 1009.3
20260507024604 18 0 0.0 0.0 0.00 0.15 0.15 86 1008.7
20260507023054 18 0 0.0 0.0 0.00 0.15 0.15 86 1008.5
20260507021551 18 0 0.0 0.0 0.00 0.15 0.15 86 1008.1
20260507020056 18 0 0.0 0.0 0.00 0.15 0.15 86 1008.7
20260507014619 18 0 0.0 0.0 0.00 0.15 0.15 85 1008.8
20260507013053 18 0 0.0 0.0 0.00 0.15 0.15 85 1008.7
20260507011556 18 0 0.0 0.0 0.00 0.15 0.15 84 1008.9
20260507004606 19 0 0.0 3.2 0.00 0.15 0.15 83 1008.5
20260507003059 19 0 0.0 0.0 0.00 0.15 0.15 83 1008.3
20260507001556 19 0 0.0 11.3 0.00 0.15 0.15 82 1008.5
20260507000057 20 0 0.0 0.0 0.00 0.15 0.15 81 1008.6
20260506234557 20 0 0.0 3.2 0.00 0.15 0.15 81 1008.4
20260506233059 20 0 0.0 6.4 0.00 0.15 0.15 81 1007.7
20260506231558 20 0 0.0 3.2 0.00 0.15 0.15 81 1007.9
20260506230055 20 0 0.0 1.6 0.00 0.15 0.15 80 1008.2
20260506224558 20 191 1.6 9.7 0.00 0.15 0.15 80 1008.0
20260506223055 20 0 0.0 16.1 0.00 0.15 0.15 79 1008.1
20260506221557 20 0 0.0 0.0 0.00 0.15 0.15 78 1008.3
20260506220053 21 0 0.0 0.0 0.00 0.15 0.15 77 1008.1
20260506214603 21 0 0.0 1.6 0.00 0.15 0.15 77 1008.0
20260506213053 21 0 0.0 0.0 0.00 0.15 0.15 77 1008.3
20260506211556 21 0 0.0 4.8 0.00 0.15 0.15 77 1008.0
20260506210101 21 0 0.0 16.1 0.00 0.15 0.15 78 1008.0
20260506204600 20 0 0.0 4.8 0.00 0.15 0.15 78 1008.1
20260506203056 20 167 0.0 3.2 0.00 0.15 0.15 78 1008.0
20260506201558 20 0 0.0 12.9 0.00 0.15 0.15 80 1008.1
20260506194556 18 0 0.0 0.0 0.00 0.15 0.15 82 1008.0
20260506193055 18 0 0.0 0.0 0.00 0.15 0.15 83 1008.2
20260506191604 18 250 1.6 14.5 0.00 0.15 0.15 84 1008.5
20260506190055 18 0 0.0 1.6 0.00 0.15 0.15 84 1008.8
20260506184553 18 0 1.6 12.9 0.00 0.15 0.15 85 1009.0
20260506183052 18 0 0.0 6.4 0.00 0.15 0.15 86 1009.2
20260506181600 18 0 0.0 16.1 0.00 0.15 0.15 85 1009.2
20260506180113 18 0 0.0 19.3 0.00 0.15 0.15 85 1009.4
20260506174553 18 0 0.0 12.9 0.00 0.15 0.15 85 1009.2
20260506173121 17 0 0.0 0.0 0.00 0.15 0.15 86 1009.4
20260506171557 17 0 0.0 8.0 0.00 0.15 0.15 87 1009.5
20260506170053 17 0 0.0 16.1 0.00 0.15 0.15 88 1009.5
20260506164553 17 0 0.0 1.6 0.00 0.15 0.15 90 1009.8
20260506163103 16 0 0.0 12.9 0.00 0.15 0.15 91 1009.9
20260506161556 16 0 0.0 8.0 0.00 0.15 0.15 91 1010.4
20260506160054 16 0 0.0 4.8 0.03 0.15 0.15 91 1010.1
20260506154551 16 0 0.0 8.0 0.05 0.15 0.15 92 1010.0
20260506153057 16 0 0.0 11.3 0.10 0.15 0.15 92 1010.1